This demonstration page uses our WeatherBlox Daily Observations layout. Learn more.

Left ArrowRight Arrow

Hourly Observations for November 30, 2019

Temp ( °F °C ) Dew Point ( °F °C ) Humidity (%) Winds ( mph kmh ) Pressure ( in mb ) Visibility ( mi km ) Precip ( " mm )
12:53 am 00:53 Cloudy with Mist and Fog 36 2.2 33 0.6 89 89 WNW 3 6 30.04 1017 6 10 0.00 0.00
1:38 am 01:38 Cloudy 38 3.3 34 1.1 86 86 N 3 6 30.06 1018 7 11 0.00 0.00
1:53 am 01:53 Cloudy 38 3.3 34 1.1 86 86 Calm 30.05 1018 8 13 0.00 0.00
2:53 am 02:53 Cloudy 38 3.3 36 2.2 93 93 Calm 30.04 1017 7 11 0.02 0.51
3:03 am 03:03 Cloudy 38 3.3 35 1.7 89 89 Calm 30.07 1018 7 11 0.00 0.00
3:34 am 03:34 Cloudy 38 3.3 36 2.2 93 93 N 5 7 30.07 1018 8 13 0.00 0.00
3:42 am 03:42 Cloudy 39 3.9 36 2.2 89 89 N 5 7 30.07 1018 8 13 0.00 0.00
3:53 am 03:53 Cloudy 39 3.9 36 2.2 89 89 N 5 7 30.05 1018 9 14 0.00 0.00
4:53 am 04:53 Cloudy 39 3.9 37 2.8 93 93 Calm 30.06 1018 9 14 0.00 0.00
5:53 am 05:53 Cloudy 40 4.4 37 2.8 89 89 Calm 30.06 1018 9 14 0.00 0.00
6:53 am 06:53 Cloudy 40 4.4 37 2.8 89 89 NNW 3 6 30.06 1018 9 14 0.00 0.00
7:53 am 07:53 Cloudy with Light Rain 40 4.4 37 2.8 89 89 NW 3 6 30.07 1018 9 14 0.00 0.00
10:53 am 10:53 Cloudy with Haze 44 6.7 39 3.9 83 83 N 3 6 30.08 1019 6 10 0.00 0.00
11:53 am 11:53 Cloudy 44 6.7 39 3.9 83 83 Calm 30.06 1018 9 14 0.00 0.00
12:53 pm 12:53 Cloudy with Light Rain 45 7.2 34 1.1 66 66 WSW 3 6 30.05 1018 6 10 0.00 0.00
1:11 pm 13:11 Cloudy with Light Rain 44 6.7 37 2.8 76 76 VRB 3 6 30.05 1018 5 8 0.01 0.25
1:24 pm 13:24 Cloudy 44 6.7 36 2.2 73 73 Calm 30.05 1018 9 14 0.01 0.25
1:53 pm 13:53 Cloudy with Light Rain 44 6.7 36 2.2 73 73 Calm 30.05 1018 7 11 0.02 0.51
2:53 pm 14:53 Cloudy with Light Rain 42 5.6 38 3.3 85 85 NW 3 6 30.04 1017 7 11 0.01 0.25
3:28 pm 15:28 Cloudy 42 5.6 38 3.3 85 85 NNW 5 7 30.05 1017 7 11 0.01 0.25
3:53 pm 15:53 Cloudy with Light Rain 42 5.6 39 3.9 89 89 NNW 5 7 30.03 1017 5 8 0.02 0.51
4:53 pm 16:53 Cloudy 41 5 38 3.3 89 89 NNW 5 7 30.02 1017 8 13 0.00 0.00
5:30 pm 17:30 Cloudy with Light Rain 40 4.4 38 3.3 93 93 NNW 6 9 30.03 1017 9 14 0.01 0.25
5:53 pm 17:53 Cloudy with Light Rain 41 5 38 3.3 89 89 NNW 6 9 30.01 1016 8 13 0.01 0.25
6:02 pm 18:02 Cloudy with Light Rain 41 5 38 3.3 89 89 NW 3 6 30.02 1017 6 10 0.00 0.00
6:53 pm 18:53 Cloudy with Light Rain 41 5 38 3.3 89 89 NNE 6 9 30.00 1016 6 10 0.09 2.29
7:06 pm 19:06 Cloudy with Light Rain 41 5 38 3.3 89 89 Calm 30.02 1017 6 10 0.01 0.25
7:27 pm 19:27 Cloudy with Light Rain 41 5 38 3.3 89 89 Calm 30.02 1017 4 6 0.05 1.27
7:53 pm 19:53 Cloudy with Light Rain 40 4.4 38 3.3 93 93 N 3 6 30.00 1016 6 10 0.09 2.29
8:07 pm 20:07 Cloudy with Light Rain 41 5 38 3.3 89 89 Calm 30.01 1016 8 13 0.00 0.00
8:53 pm 20:53 Cloudy with Light Rain 41 5 38 3.3 89 89 Calm 30.00 1016 7 11 0.01 0.25
9:16 pm 21:16 Cloudy with Light Rain 41 5 38 3.3 89 89 Calm 30.01 1016 6 10 0.01 0.25
9:21 pm 21:21 Cloudy with Light Rain 41 5 38 3.3 89 89 Calm 30.01 1016 5 8 0.01 0.25
9:28 pm 21:28 Cloudy with Light Rain 41 5 39 3.9 93 93 Calm 30.01 1016 4 6 0.02 0.51
9:35 pm 21:35 Cloudy with Light Rain 41 5 38 3.3 89 89 NE 6 9 30.01 1016 4 6 0.03 0.76
9:53 pm 21:53 Cloudy with Light Rain 40 4.4 37 2.8 89 89 NE 5 7 29.98 1015 6 10 0.04 1.02
10:05 pm 22:05 Cloudy with Light Rain 40 4.4 37 2.8 89 89 ENE 5 7 29.99 1016 6 10 0.01 0.25
10:53 pm 22:53 Cloudy with Light Rain 40 4.4 37 2.8 89 89 ENE 6 9 29.97 1015 6 10 0.05 1.27
11:34 pm 23:34 Cloudy with Light Rain 39 3.9 37 2.8 93 93 ENE 5 7 29.99 1016 5 8 0.04 1.02
11:43 pm 23:43 Cloudy with Light Rain 39 3.9 36 2.2 89 89 NE 8 13 29.98 1015 5 8 0.04 1.02
11:53 pm 23:53 Cloudy with Light Rain 39 3.9 36 2.2 89 89 NE 6 9 29.96 1015 4 6 0.05 1.27

Powered by AerisWeather